LEMD Weather Reports


Display with metric or nautical units.
time (UTC)temp
F
wind
direction
speed
MPH
gust
MPH
rain 1hr
in
rain 24hr
in
rain mn
in
humidity
%
barometer
mb
20260509044504 54 120 6.0 0.0 0.00 0.00 0.00 87 1009.0
20260509043004 55 130 9.0 0.0 0.00 0.00 0.00 82 1010.0
20260509041503 55 130 9.0 0.0 0.00 0.00 0.00 82 1010.0
20260509040004 54 120 3.0 0.0 0.00 0.00 0.00 87 1010.0
20260509034504 54 120 3.0 0.0 0.00 0.00 0.00 87 1010.0
20260509033005 54 120 3.0 0.0 0.00 0.00 0.00 87 1010.0
20260509024504 54 120 3.0 0.0 0.00 0.00 0.00 87 1010.0
20260509021504 52 150 1.0 0.0 0.00 0.00 0.00 93 1010.0
20260509014504 50 0 1.0 0.0 0.00 0.00 0.00 100 1011.0
20260509010004 52 0 2.0 0.0 0.00 0.00 0.00 93 1011.0
20260509004503 52 0 2.0 0.0 0.00 0.00 0.00 93 1011.0
20260509001504 54 0 2.0 0.0 0.00 0.00 0.00 87 1011.0
20260509000004 54 0 2.0 0.0 0.00 0.00 0.00 87 1011.0
20260508233004 54 340 3.0 0.0 0.00 0.00 0.00 87 1011.0
20260508230004 54 320 3.0 0.0 0.00 0.00 0.00 87 1011.0
20260508224503 54 320 3.0 0.0 0.00 0.00 0.00 87 1011.0
20260508223004 55 40 3.0 0.0 0.00 0.00 0.00 76 1011.0
20260508221504 55 40 3.0 0.0 0.00 0.00 0.00 76 1011.0
20260508220005 55 0 2.0 0.0 0.00 0.00 0.00 71 1011.0
20260508214504 55 0 2.0 0.0 0.00 0.00 0.00 71 1011.0
20260508213004 55 0 2.0 0.0 0.00 0.00 0.00 76 1011.0
20260508211504 55 0 2.0 0.0 0.00 0.00 0.00 76 1011.0
20260508210005 57 30 2.0 0.0 0.00 0.00 0.00 67 1011.0
20260508203004 57 20 2.0 0.0 0.00 0.00 0.00 71 1010.0
20260508201504 57 20 2.0 0.0 0.00 0.00 0.00 71 1010.0
20260508200004 59 0 2.0 0.0 0.00 0.00 0.00 72 1010.0
20260508193004 63 0 2.0 0.0 0.00 0.00 0.00 55 1010.0
20260508191504 63 0 2.0 0.0 0.00 0.00 0.00 55 1010.0
20260508184504 63 20 5.0 0.0 0.00 0.00 0.00 59 1010.0
20260508183005 63 20 3.0 0.0 0.00 0.00 0.00 55 1010.0
20260508180004 64 360 5.0 0.0 0.00 0.00 0.00 55 1010.0
20260508174504 64 360 5.0 0.0 0.00 0.00 0.00 55 1010.0
20260508173004 64 310 5.0 0.0 0.00 0.00 0.00 52 1010.0
20260508171503 64 310 5.0 0.0 0.00 0.00 0.00 52 1010.0
20260508164504 64 320 9.0 0.0 0.00 0.00 0.00 59 1010.0
20260508163005 66 260 12.0 0.0 0.00 0.00 0.00 48 1010.0
20260508160005 63 170 6.0 0.0 0.00 0.00 0.00 55 1010.0
20260508154504 63 170 6.0 0.0 0.00 0.00 0.00 55 1010.0
20260508153004 61 120 3.0 0.0 0.00 0.00 0.00 67 1011.0
20260508151504 61 120 3.0 0.0 0.00 0.00 0.00 67 1011.0
20260508150005 63 230 2.0 0.0 0.00 0.00 0.00 67 1011.0
20260508144504 63 230 2.0 0.0 0.00 0.00 0.00 67 1011.0
20260508143004 57 330 5.0 0.0 0.00 0.00 0.00 76 1011.0
20260508140004 57 340 3.0 0.0 0.00 0.00 0.00 87 1011.0
20260508134504 57 340 3.0 0.0 0.00 0.00 0.00 87 1011.0
20260508130004 55 20 5.0 0.0 0.00 0.00 0.00 87 1012.0
20260508123004 54 10 5.0 0.0 0.00 0.00 0.00 93 1012.0
20260508120005 54 0 2.0 0.0 0.00 0.00 0.00 81 1012.0
20260508114504 54 0 2.0 0.0 0.00 0.00 0.00 81 1012.0
20260508113004 54 0 5.0 0.0 0.00 0.00 0.00 81 1013.0
20260508104504 54 230 5.0 0.0 0.00 0.00 0.00 76 1013.0
20260508103004 55 220 3.0 0.0 0.00 0.00 0.00 71 1012.0
20260508101504 55 0 2.0 0.0 0.00 0.00 0.00 76 1012.0
20260508094504 54 160 1.0 0.0 0.00 0.00 0.00 71 1012.0
20260508093004 54 50 3.0 0.0 0.00 0.00 0.00 76 1012.0
20260508091504 54 50 3.0 0.0 0.00 0.00 0.00 76 1012.0
20260508090005 50 0 2.0 0.0 0.00 0.00 0.00 93 1012.0
20260508084504 50 0 2.0 0.0 0.00 0.00 0.00 93 1012.0
20260508070005 46 0 2.0 0.0 0.00 0.00 0.00 100 1012.0
20260508064504 46 0 2.0 0.0 0.00 0.00 0.00 100 1012.0
20260508063005 46 0 2.0 0.0 0.00 0.00 0.00 100 1012.0
20260508061504 46 0 2.0 0.0 0.00 0.00 0.00 100 1012.0
20260508054504 45 0 1.0 0.0 0.00 0.00 0.00 100 1012.0
20260508053004 45 0 1.0 0.0 0.00 0.00 0.00 100 1012.0
20260508051504 45 0 1.0 0.0 0.00 0.00 0.00 100 1012.0